Location: Unspecified
(0.0000°N, 0.0000°E)
Time: 08:39:59
(UTC+00:00)

BlueWalker 3 - Pass Details

Date: 16 April 2026
Orbit: 450 x 457 km, 53.2° (Epoch: 9 April)

Event Time Altitude Azimuth Distance (km) Brightness Sun altitude
Rises 19:03:36 0° 347° (NNW) 2,449 5.8 -15.7°
Reaches altitude 10° 19:06:01 10° 2° (N) 1,580 4.6 -16.3°
Enters shadow 19:08:24 22° 43° (NE) 1,036 3.2 -16.9°
